STARLINK-31880, 59661

Orbit data source: Space-Track

STARLINK-31880, 59661 is a payload satellite owned by SpaceX/Seattle (US) in LEO that was launched on Mon, 06 May 2024 UTC via an FALCON 9 launch vehicle from the Air Force Eastern Test Range (AFETR). Payload-class satellites include a variety of spacecraft equipped with specific instruments for various scientific and technological missions. These include communications satellites like Starlink; space stations such as the ISS; scientific satellites like the Hubble; Earth observation satellites from companies like Planet Labs, Umbra, and HawkEye 360; GPS; miniature CubeSats for education and research; and military/defense satellites.

Loading next visibility...
Identifier
59661, 2024-084H
Orbit
LEO
Country
Flag of USUS
Related business
Manufacturer
SpaceX/Seattle
Mission
Operational Commercial Communications
Bus & Motor
STARLINK V2M, Unknown motor
Mass
730 kg wet, ~700 kg dry
Launch date (UTC)
2024-05-06 (2 years ago)
Launch vehicle
FALCON 9
Launch site
Air Force Eastern Test Range (AFETR)
Object type
Payload
Rocket body
Debris
Shape & HBR
Box + 2 Pan, 17.7 m
Radar Cross Section
33.884 m², Large (>1 m²)

Expand to show TLE details & history
Last TLE update: 2 days ago

TLE from 2 days ago
0 STARLINK-31880
1 59661U 24084H   26171.07697978  .00000575  00000-0  30427-4 0  9992
2 59661  43.0032 179.9683 0001337 280.4309  79.6392 15.27577606120076
Epoch: 2026-06-20T01:50Z
TLE epoch observation values (Epoch: 2026-06-20T01:50:51.052Z)
Latitude
Longitude
-116.0412°
Altitude
482.667 km
Speed
7.626 km/s
True Right ascension
11h 59m 52s
True Declination
0° 00' 00"
Sunlit
Object was in daylight at epoch
Visualization orbit readout
Latitude
Unknown
Longitude
Unknown
Altitude
Unknown
Speed
Unknown
Apparent Right ascension
Unknown
Apparent Declination
Unknown
Sunlit
N/A
Visualization observer readout
Local Sidereal Time
23:20:27
Azimuth
Unknown
Elevation
Unknown
Doppler factor
Unknown
Orbital elements
Apogee altitude
485.919 km
Perigee altitude
484.083 km
Semi-major axis
6,863.138 km
Eccentricity
0.00013
Inclination
43.0032°
RAAN
179.9683°
Arg. of periapsis
280.4309°
True anomaly
79.65427°
Mean anomaly
79.6392°
Eccentric anomaly
79.64674°
Mean motion
3.81732 °/min
Orbital period
94.31 mins
BSTAR
0.000030427
Loading maneuver chart data...
Computing Atmospheric mass density...
Loading historical data...
Loading historical data...
Loading historical data...
Loading historical data...
Loading historical data...
Loading historical data...
Loading historical data...

Documentation

Showing up to 5 results
|